period_start,C,m1,H,J0,J1,J2,J3,J4,J5,JA,JB,JC,JD,JJ,JK,JN,#
2017-03-20 00:01:46,0.30,8.61,0.00,24.08,27.07,30.20,14.43,50.99,1014.20,2027.99,1410.93,1582.85,1800.38,600.23,592.59,49.29,0000 0000 0000 0000 000000
2017-03-20 00:06:47,0.31,8.62,0.00,24.08,27.07,30.20,14.40,50.89,1014.20,2027.98,1408.95,1581.43,1798.68,599.89,592.51,49.34,0000 0000 0000 0000 000000
2017-03-20 00:11:48,0.26,8.64,0.00,24.08,27.07,30.20,14.42,51.07,1014.18,2027.98,1407.18,1580.05,1797.11,599.86,592.23,49.39,0000 0000 0000 0000 000000
2017-03-20 00:16:50,0.30,8.65,0.00,24.07,27.07,30.20,14.47,51.24,1014.17,2027.97,1405.33,1578.69,1795.53,600.36,592.69,49.45,0000 0000 0000 0000 000000
2017-03-20 00:21:51,0.29,8.66,0.00,24.07,27.08,30.21,14.41,50.82,1014.17,2027.97,1403.37,1577.31,1793.85,600.00,592.40,49.50,0000 0000 0000 0000 000000
2017-03-20 00:26:52,0.29,8.68,0.00,24.06,27.09,30.22,14.40,50.87,1014.10,2027.98,1401.39,1575.87,1792.33,599.77,592.21,49.55,0000 0000 0000 0000 000000
2017-03-20 00:31:54,0.31,8.70,0.00,24.08,27.09,30.21,14.47,50.90,1014.10,2027.97,1399.41,1574.53,1790.75,600.10,592.56,49.60,0000 0000 0000 0000 000000
2017-03-20 00:36:55,0.27,8.71,0.00,24.10,27.10,30.21,14.40,50.92,1014.18,2027.95,1397.51,1573.12,1789.19,599.90,592.31,49.65,0000 0000 0000 0000 000000
2017-03-20 00:41:56,0.31,8.73,0.00,24.16,27.10,30.23,14.42,50.90,1014.23,2027.95,1395.61,1571.73,1787.58,599.90,592.17,49.70,0000 0000 0000 0000 000000
2017-03-20 00:46:57,0.29,8.74,0.00,24.10,27.10,30.23,14.43,51.01,1014.19,2027.96,1393.65,1570.40,1785.98,599.92,592.43,49.75,0000 0000 0000 0000 000000
2017-03-20 00:51:59,0.24,8.76,0.00,24.10,27.10,30.23,14.43,51.10,1014.31,2027.86,1391.93,1569.06,1784.50,599.71,592.30,49.80,0000 0000 0000 0000 000000
2017-03-20 00:57:00,0.26,8.77,0.00,24.13,27.10,30.25,14.48,51.18,1014.19,2027.90,1390.37,1567.87,1783.12,599.88,592.05,49.85,0000 0000 0000 0000 000000
2017-03-20 01:02:01,0.23,8.78,0.00,24.08,27.10,30.25,14.43,51.17,1014.17,2027.80,1388.77,1566.77,1781.82,600.10,592.61,49.90,0000 0000 0000 0000 000000
2017-03-20 01:07:03,0.22,8.79,0.00,24.07,27.10,30.25,14.48,51.26,1014.21,2027.75,1387.28,1565.73,1780.61,600.07,592.55,49.95,0000 0000 0000 0000 000000
2017-03-20 01:12:04,0.22,8.80,0.00,24.07,27.11,30.24,14.39,51.26,1014.63,2027.50,1385.60,1564.53,1779.23,599.61,592.34,50.00,0000 0000 0000 0000 000000
2017-03-20 01:17:05,0.27,8.82,0.00,24.06,27.11,30.23,14.43,51.12,1014.71,2027.45,1383.83,1563.24,1777.69,600.29,593.08,50.05,0000 0000 0000 0000 000000
2017-03-20 01:22:06,0.26,8.83,0.00,24.08,27.11,30.24,14.47,51.08,1014.97,2027.43,1382.02,1561.87,1776.23,600.06,592.94,50.10,0000 0000 0000 0000 000000
2017-03-20 01:27:08,0.29,8.84,0.00,24.06,27.12,30.25,14.44,51.04,1015.14,2027.41,1380.38,1560.72,1774.78,599.81,592.90,50.15,0000 0000 0000 0000 000000
2017-03-20 01:32:09,0.26,8.86,0.00,24.07,27.12,30.24,14.52,50.94,1015.18,2027.59,1378.78,1559.56,1773.48,600.23,593.23,50.20,0000 0000 0000 0000 000000
2017-03-20 01:37:10,0.17,8.87,0.00,24.06,27.12,30.24,14.42,50.92,1015.46,2027.28,1377.23,1558.42,1772.14,599.54,592.80,50.25,0000 0000 0000 0000 000000
2017-03-20 01:42:12,0.25,8.88,0.00,24.06,27.12,30.24,14.46,50.97,1015.61,2027.11,1375.62,1557.30,1770.73,600.08,593.47,50.31,0000 0000 0000 0000 000000
2017-03-20 01:47:13,0.23,8.89,0.00,24.09,27.12,30.25,14.48,50.92,1015.41,2027.11,1374.01,1556.16,1769.49,599.95,593.11,50.36,0000 0000 0000 0000 000000
2017-03-20 01:52:15,0.21,8.90,0.00,24.08,27.11,30.24,14.44,51.12,1015.23,2027.04,1372.59,1555.12,1768.27,599.92,592.99,50.41,0000 0000 0000 0000 000000
2017-03-20 01:57:16,0.21,8.92,0.00,24.09,27.10,30.24,14.44,50.91,1015.45,2027.06,1371.19,1554.07,1767.03,599.97,593.10,50.46,0000 0000 0000 0000 000000
2017-03-20 02:02:18,0.25,8.93,0.00,24.11,27.11,30.24,14.41,50.82,1015.49,2027.06,1369.67,1553.00,1765.77,599.76,592.86,50.51,0000 0000 0000 0000 000000
2017-03-20 02:07:19,0.22,8.94,0.00,24.13,27.11,30.25,14.41,50.98,1015.33,2027.06,1368.33,1551.96,1764.60,599.78,592.87,50.56,0000 0000 0000 0000 000000
2017-03-20 02:12:20,0.21,8.95,0.00,24.12,27.11,30.24,14.42,50.88,1015.30,2027.03,1366.84,1550.95,1763.36,600.29,593.28,50.61,0000 0000 0000 0000 000000
2017-03-20 02:17:22,0.23,8.96,0.00,24.09,27.11,30.24,14.46,51.03,1015.44,2027.07,1365.46,1549.89,1762.14,600.20,593.32,50.66,0000 0000 0000 0000 000000
2017-03-20 02:22:22,0.22,8.97,0.00,24.10,27.12,30.25,14.41,50.90,1015.55,2027.05,1363.98,1548.83,1760.89,600.07,593.27,50.71,0000 0000 0000 0000 000000
2017-03-20 02:27:24,0.21,8.98,0.00,24.13,27.12,30.24,14.44,50.83,1015.63,2027.02,1362.65,1547.90,1759.82,600.08,593.33,50.76,0000 0000 0000 0000 000000
2017-03-20 02:32:25,0.21,9.00,0.00,24.18,27.12,30.25,14.46,50.60,1015.64,2027.02,1361.37,1546.90,1758.63,599.92,592.98,50.81,0000 0000 0000 0000 000000
2017-03-20 02:37:26,0.25,9.01,0.00,24.18,27.12,30.24,14.46,50.67,1015.66,2027.02,1359.90,1545.82,1757.42,600.24,593.34,50.86,0000 0000 0000 0000 000000
2017-03-20 02:42:27,0.24,9.02,0.00,24.16,27.12,30.24,14.44,50.60,1015.78,2027.04,1358.20,1544.76,1756.07,600.22,593.50,50.91,0000 0000 0000 0000 000000
2017-03-20 02:47:29,0.25,9.03,0.00,24.14,27.12,30.24,14.46,50.64,1015.87,2027.00,1356.70,1543.69,1754.78,600.10,593.40,50.96,0000 0000 0000 0000 000000
2017-03-20 02:52:30,0.20,9.04,0.00,24.16,27.12,30.22,14.45,50.73,1015.99,2027.01,1355.41,1542.73,1753.63,599.85,593.20,51.01,0000 0000 0000 0000 000000
2017-03-20 02:57:31,0.17,9.05,0.00,24.14,27.12,30.24,14.47,50.70,1015.98,2027.01,1354.22,1541.87,1752.58,600.20,593.55,51.06,0000 0000 0000 0000 000000
2017-03-20 03:02:33,0.17,9.06,0.00,24.15,27.12,30.25,14.49,50.92,1016.07,2027.00,1353.17,1540.98,1751.65,600.10,593.50,51.11,0000 0000 0000 0000 000000
2017-03-20 03:07:34,0.19,9.07,0.00,24.18,27.12,30.25,14.45,50.91,1016.07,2027.00,1352.00,1540.11,1750.59,600.15,593.43,51.16,0000 0000 0000 0000 000000
2017-03-20 03:12:35,0.20,9.08,0.00,24.24,27.14,30.26,14.36,50.98,1016.10,2027.00,1350.86,1539.21,1749.59,599.72,592.95,51.21,0000 0000 0000 0000 000000
2017-03-20 03:17:37,0.22,9.09,0.00,24.22,27.14,30.25,14.47,51.24,1016.12,2027.00,1349.59,1538.31,1748.52,600.26,593.56,51.27,0000 0000 0000 0000 000000
2017-03-20 03:22:38,0.19,9.10,0.00,24.19,27.15,30.24,14.45,51.13,1016.13,2027.00,1348.44,1537.49,1747.54,599.54,592.90,51.32,0000 0000 0000 0000 000000
2017-03-20 03:27:39,0.19,9.11,0.00,24.19,27.15,30.26,14.55,51.13,1016.14,2027.00,1347.19,1536.57,1746.47,600.10,593.46,51.37,0000 0000 0000 0000 000000
2017-03-20 03:32:40,0.19,9.12,0.00,24.21,27.15,30.26,14.50,51.03,1016.35,2027.00,1345.92,1535.72,1745.36,600.13,593.53,51.42,0000 0000 0000 0000 000000
2017-03-20 03:37:41,0.18,9.13,0.00,24.20,27.15,30.25,14.39,50.88,1016.61,2027.00,1344.70,1534.97,1744.37,599.68,593.28,51.47,0000 0000 0000 0000 000000
2017-03-20 03:42:43,0.20,9.14,0.00,24.21,27.15,30.26,14.44,50.74,1016.62,2027.00,1343.55,1534.10,1743.36,599.86,593.52,51.52,0000 0000 0000 0000 000000
2017-03-20 03:47:44,0.19,9.16,0.00,24.20,27.15,30.26,14.46,50.91,1016.62,2027.00,1342.44,1533.21,1742.27,600.07,593.71,51.57,0000 0000 0000 0000 000000
2017-03-20 03:52:45,0.19,9.16,0.00,24.21,27.15,30.26,14.47,50.77,1016.63,2027.00,1341.23,1532.34,1741.23,600.33,593.96,51.62,0000 0000 0000 0000 000000
2017-03-20 03:57:46,0.21,9.18,0.00,24.22,27.15,30.26,14.39,50.86,1016.78,2027.00,1339.90,1531.40,1740.11,599.83,593.50,51.67,0000 0000 0000 0000 000000
2017-03-20 04:02:47,0.20,9.18,0.00,24.22,27.15,30.25,14.49,50.86,1017.08,2027.00,1338.68,1530.57,1739.08,599.91,593.76,51.72,0000 0000 0000 0000 000000
2017-03-20 04:07:48,0.19,9.19,0.00,24.22,27.15,30.25,14.45,50.80,1017.10,2026.99,1337.50,1529.73,1738.08,599.91,593.87,51.77,0000 0000 0000 0000 000000
2017-03-20 04:12:50,0.17,9.20,0.00,24.22,27.16,30.27,14.45,50.98,1017.10,2026.99,1336.40,1528.88,1737.08,599.71,593.57,51.82,0000 0000 0000 0000 000000
2017-03-20 04:17:51,0.18,9.21,0.00,24.26,27.17,30.27,14.46,50.92,1017.11,2026.99,1335.22,1528.01,1736.06,600.12,593.88,51.87,0000 0000 0000 0000 000000
2017-03-20 04:22:52,0.25,9.22,0.00,24.26,27.17,30.27,14.35,50.77,1017.20,2026.99,1333.73,1527.07,1734.94,599.76,593.61,51.92,0000 0000 0000 0000 000000
2017-03-20 04:27:54,0.22,9.24,0.00,24.25,27.17,30.28,14.51,50.72,1017.56,2026.99,1332.41,1526.04,1733.76,600.06,594.15,51.97,0000 0000 0000 0000 000000
2017-03-20 04:32:55,0.23,9.25,0.00,24.25,27.17,30.28,14.46,50.67,1017.59,2026.97,1330.97,1525.03,1732.57,599.87,593.88,52.02,0000 0000 0000 0000 000000
2017-03-20 04:37:56,0.23,9.26,0.00,24.30,27.17,30.28,14.36,50.57,1017.66,2026.98,1329.60,1524.05,1731.45,599.53,593.58,52.07,0000 0000 0000 0000 000000
2017-03-20 04:42:57,0.20,9.27,0.00,24.30,27.17,30.26,14.45,50.61,1017.78,2026.98,1328.31,1523.14,1730.35,599.87,593.99,52.13,0000 0000 0000 0000 000000
2017-03-20 04:47:59,0.22,9.28,0.00,24.29,27.17,30.25,14.47,50.58,1018.03,2026.98,1326.93,1522.16,1729.19,600.20,594.44,52.18,0000 0000 0000 0000 000000
2017-03-20 04:53:00,0.23,9.29,0.00,24.27,27.17,30.27,14.51,50.60,1018.08,2026.98,1325.60,1521.19,1728.09,600.03,594.46,52.23,0000 0000 0000 0000 000000
2017-03-20 04:58:01,0.20,9.31,0.00,24.32,27.18,30.27,14.45,50.57,1018.08,2026.98,1324.20,1520.22,1727.02,599.92,594.14,52.28,0000 0000 0000 0000 000000
2017-03-20 05:03:02,0.23,9.32,0.00,24.33,27.19,30.27,14.44,50.56,1018.07,2026.97,1322.86,1519.31,1725.93,599.86,594.13,52.33,0000 0000 0000 0000 000000
2017-03-20 05:08:03,0.23,9.33,0.00,24.33,27.20,30.27,14.51,50.55,1018.08,2026.91,1321.56,1518.30,1724.79,600.06,594.16,52.38,0000 0000 0000 0000 000000
2017-03-20 05:13:05,0.19,9.34,0.00,24.36,27.20,30.26,14.47,50.69,1018.08,2026.83,1320.28,1517.35,1723.69,600.17,594.41,52.43,0000 0000 0000 0000 000000
2017-03-20 05:18:06,0.22,9.35,0.00,24.36,27.20,30.25,14.50,50.53,1018.08,2026.75,1318.86,1516.37,1722.54,600.21,594.39,52.48,0000 0000 0000 0000 000000
2017-03-20 05:23:07,0.24,9.36,0.00,24.36,27.20,30.28,14.43,50.52,1018.08,2026.83,1317.54,1515.42,1721.39,599.87,594.09,52.53,0000 0000 0000 0000 000000
2017-03-20 05:28:08,0.21,9.37,0.00,24.36,27.20,30.28,14.46,50.58,1018.08,2026.80,1316.24,1514.42,1720.27,600.16,594.40,52.58,0000 0000 0000 0000 000000
2017-03-20 05:33:09,0.19,9.38,0.00,24.39,27.20,30.30,14.46,50.62,1018.08,2026.63,1314.87,1513.46,1719.13,600.05,594.01,52.63,0000 0000 0000 0000 000000
2017-03-20 05:38:10,0.24,9.39,0.00,24.39,27.21,30.29,14.46,50.43,1018.09,2026.60,1313.53,1512.49,1717.93,600.07,594.24,52.68,0000 0000 0000 0000 000000
2017-03-20 05:43:11,0.21,9.40,0.00,24.38,27.22,30.28,14.38,50.47,1018.11,2026.53,1312.08,1511.50,1716.71,599.76,593.87,52.73,0000 0000 0000 0000 000000
2017-03-20 05:48:13,0.25,9.42,0.00,24.39,27.22,30.28,14.38,50.42,1018.10,2026.47,1310.67,1510.45,1715.54,599.81,593.92,52.78,0000 0000 0000 0000 000000
2017-03-20 05:53:14,0.19,9.43,0.00,24.41,27.22,30.29,14.45,50.71,1018.10,2026.28,1309.32,1509.38,1714.34,600.05,594.34,52.83,0000 0000 0000 0000 000000
2017-03-20 05:58:15,0.24,9.44,0.00,24.44,27.22,30.29,14.48,50.67,1018.09,2026.18,1307.74,1508.30,1712.97,599.94,594.02,52.88,0000 0000 0000 0000 000000
2017-03-20 06:03:16,0.37,9.46,0.00,24.43,27.23,30.32,14.41,50.84,1018.35,2026.07,1305.89,1506.62,1711.11,600.09,594.31,52.93,0000 0000 0000 0000 000000
2017-03-20 06:08:18,0.25,9.47,0.00,24.44,27.24,30.29,14.44,50.57,1018.57,2026.04,1304.18,1505.28,1709.61,600.03,594.17,52.99,0000 0000 0000 0000 000000
2017-03-20 06:13:19,0.27,9.49,0.00,24.50,27.25,30.30,14.40,50.47,1018.58,2026.05,1302.51,1504.15,1708.29,599.82,594.00,53.04,0000 0000 0000 0000 000000
2017-03-20 06:18:20,0.29,9.50,0.00,24.49,27.25,30.29,14.49,50.66,1018.58,2026.04,1300.78,1503.01,1706.88,599.96,594.14,53.09,0000 0000 0000 0000 000000
2017-03-20 06:23:22,0.26,9.51,0.00,24.50,27.25,30.31,14.43,50.56,1018.58,2026.03,1299.30,1501.83,1705.59,599.93,594.08,53.14,0000 0000 0000 0000 000000
2017-03-20 06:28:23,0.26,9.53,0.00,24.50,27.27,30.33,14.51,50.58,1018.60,2026.01,1297.83,1500.74,1704.34,600.05,594.17,53.19,0000 0000 0000 0000 000000
2017-03-20 06:33:24,0.26,9.54,0.00,24.53,27.27,30.36,14.46,50.78,1018.60,2026.02,1296.33,1499.64,1703.00,599.71,593.78,53.24,0000 0000 0000 0000 000000
2017-03-20 06:38:25,0.29,9.55,0.00,24.54,27.27,30.34,14.50,50.74,1018.60,2026.00,1294.67,1498.45,1701.60,600.36,594.48,53.29,0000 0000 0000 0000 000000
2017-03-20 06:43:27,0.24,9.57,0.00,24.58,27.29,30.32,14.36,50.77,1018.57,2026.00,1293.10,1497.29,1700.28,599.78,593.76,53.34,0000 0000 0000 0000 000000
2017-03-20 06:48:28,0.27,9.58,0.00,24.58,27.30,30.34,14.44,50.90,1018.57,2026.00,1291.52,1496.18,1698.88,599.81,593.86,53.39,0000 0000 0000 0000 000000
2017-03-20 06:53:29,0.27,9.59,0.00,24.55,27.30,30.33,14.42,51.08,1018.57,2026.00,1289.94,1495.03,1697.60,599.97,593.97,53.44,0000 0000 0000 0000 000000
2017-03-20 06:58:31,0.26,9.61,0.00,24.56,27.31,30.33,14.35,50.92,1018.57,2026.00,1288.42,1493.89,1696.32,599.94,593.93,53.49,0000 0000 0000 0000 000000
2017-03-20 07:03:32,0.28,9.62,0.00,24.52,27.32,30.35,14.50,51.02,1018.57,2026.00,1286.82,1492.77,1694.90,599.97,594.05,53.54,0000 0000 0000 0000 000000
2017-03-20 07:08:34,0.26,9.63,0.00,24.52,27.32,30.35,14.48,51.08,1018.57,2026.00,1285.32,1491.71,1693.62,599.91,594.00,53.59,0000 0000 0000 0000 000000
2017-03-20 07:13:35,0.28,9.65,0.00,24.52,27.32,30.36,14.46,51.00,1018.58,2026.00,1283.71,1490.63,1692.40,599.90,594.03,53.64,0000 0000 0000 0000 000000
2017-03-20 07:18:37,0.24,9.66,0.00,24.53,27.32,30.37,14.43,50.80,1018.66,2025.99,1282.09,1489.54,1691.08,600.17,594.24,53.69,0000 0000 0000 0000 000000
2017-03-20 07:23:38,0.26,9.67,0.00,24.51,27.33,30.36,14.40,50.58,1018.94,2025.98,1280.64,1488.48,1689.81,600.00,594.29,53.74,0000 0000 0000 0000 000000
2017-03-20 07:28:39,0.25,9.69,0.00,24.51,27.34,30.36,14.50,50.78,1018.95,2025.98,1279.18,1487.44,1688.53,600.02,594.57,53.79,0000 0000 0000 0000 000000
2017-03-20 07:33:40,0.30,9.70,0.00,24.49,27.35,30.36,14.45,50.73,1019.05,2025.98,1277.40,1486.10,1686.99,599.96,594.42,53.84,0000 0000 0000 0000 000000
2017-03-20 07:38:42,0.31,9.72,0.00,24.50,27.35,30.37,14.42,50.67,1019.06,2025.96,1275.69,1484.83,1685.52,599.73,594.20,53.89,0000 0000 0000 0000 000000
2017-03-20 07:43:43,0.30,9.73,0.00,24.50,27.35,30.36,14.49,50.71,1019.26,2025.93,1273.92,1483.60,1684.07,599.92,594.49,53.95,0000 0000 0000 0000 000000
2017-03-20 07:48:44,0.30,9.75,0.00,24.48,27.35,30.36,14.50,50.78,1019.55,2025.94,1272.17,1482.39,1682.60,600.21,594.96,54.00,0000 0000 0000 0000 000000
2017-03-20 07:53:46,0.30,9.77,0.00,24.50,27.35,30.37,14.44,50.79,1019.56,2025.92,1270.31,1481.13,1681.11,600.12,594.93,54.05,0000 0000 0000 0000 000000
2017-03-20 07:58:47,0.33,9.78,0.00,24.49,27.35,30.37,14.49,50.83,1019.57,2025.96,1268.47,1479.85,1679.66,599.95,594.61,54.10,0000 0000 0000 0000 000000
2017-03-20 08:03:48,0.31,9.80,0.00,24.50,27.35,30.38,14.50,50.72,1019.63,2025.92,1266.65,1478.61,1678.14,600.03,594.87,54.15,0000 0000 0000 0000 000000
2017-03-20 08:08:50,0.31,9.81,0.00,24.49,27.35,30.37,14.51,50.67,1019.94,2025.94,1264.86,1477.43,1676.72,600.01,594.98,54.20,0000 0000 0000 0000 000000
2017-03-20 08:13:51,0.28,9.83,0.00,24.50,27.35,30.36,14.47,50.48,1020.02,2025.96,1263.15,1476.31,1675.41,599.84,594.80,54.25,0000 0000 0000 0000 000000
2017-03-20 08:18:53,0.27,9.84,0.00,24.50,27.35,30.36,14.45,50.46,1019.86,2025.97,1261.48,1475.11,1673.99,600.13,595.09,54.30,0000 0000 0000 0000 000000
2017-03-20 08:23:54,0.33,9.86,0.00,24.50,27.35,30.35,14.53,50.73,1019.60,2025.95,1259.73,1473.85,1672.55,599.79,594.56,54.35,0000 0000 0000 0000 000000
2017-03-20 08:28:55,0.33,9.88,0.00,24.52,27.35,30.36,14.41,50.84,1019.71,2025.95,1257.86,1472.55,1670.98,600.09,594.78,54.40,0000 0000 0000 0000 000000
2017-03-20 08:33:57,0.29,9.89,0.00,24.51,27.35,30.38,14.45,50.76,1019.77,2025.91,1255.97,1471.36,1669.46,599.94,594.78,54.45,0000 0000 0000 0000 000000
2017-03-20 08:38:58,0.26,9.91,0.00,24.49,27.35,30.38,14.46,50.77,1019.87,2025.87,1254.33,1470.27,1668.05,599.77,594.61,54.50,0000 0000 0000 0000 000000
2017-03-20 08:43:59,0.26,9.92,0.00,24.47,27.35,30.37,14.53,50.83,1020.03,2025.67,1252.69,1469.07,1666.68,600.24,595.29,54.55,0000 0000 0000 0000 000000
2017-03-20 08:49:01,0.31,9.93,0.00,24.47,27.35,30.37,14.46,50.71,1020.09,2025.62,1250.87,1467.87,1665.26,599.78,594.94,54.60,0000 0000 0000 0000 000000
2017-03-20 08:54:02,0.28,9.95,0.00,24.47,27.35,30.37,14.53,50.65,1020.09,2025.58,1249.19,1466.70,1663.85,600.16,595.28,54.65,0000 0000 0000 0000 000000
2017-03-20 08:59:04,0.29,9.96,0.00,24.47,27.35,30.37,14.39,50.59,1020.07,2025.68,1247.73,1465.63,1662.70,599.67,594.82,54.70,0000 0000 0000 0000 000000
2017-03-20 09:04:05,0.28,9.98,0.00,24.47,27.35,30.37,14.49,50.88,1020.06,2025.60,1246.02,1464.53,1661.41,599.82,595.12,54.76,0000 0000 0000 0000 000000
2017-03-20 09:09:06,0.31,9.99,0.00,24.44,27.35,30.38,14.46,50.78,1020.14,2025.52,1244.13,1463.22,1659.77,599.92,595.08,54.81,0000 0000 0000 0000 000000
2017-03-20 09:14:08,0.35,10.01,0.00,24.42,27.36,30.37,14.52,50.93,1020.33,2025.37,1242.01,1461.71,1658.09,600.22,595.57,54.86,0000 0000 0000 0000 000000
2017-03-20 09:19:09,0.35,10.03,0.00,24.43,27.37,30.38,14.54,50.69,1020.51,2025.45,1240.05,1460.35,1656.47,599.98,595.41,54.91,0000 0000 0000 0000 000000
2017-03-20 09:24:10,0.30,10.04,0.00,24.41,27.37,30.39,14.52,50.92,1020.64,2025.27,1238.22,1458.98,1654.89,600.00,595.60,54.96,0000 0000 0000 0000 000000
2017-03-20 09:29:12,0.33,10.06,0.00,24.41,27.37,30.36,14.53,50.77,1020.98,2025.29,1236.37,1457.70,1653.42,600.02,595.78,55.01,0000 0000 0000 0000 000000
2017-03-20 09:34:13,0.32,10.08,0.00,24.44,27.37,30.37,14.53,50.57,1021.02,2025.23,1234.56,1456.50,1651.90,600.19,595.83,55.06,0000 0000 0000 0000 000000
2017-03-20 09:39:15,0.29,10.09,0.00,24.42,27.36,30.36,14.59,50.54,1021.02,2025.17,1232.74,1455.33,1650.47,600.37,596.02,55.11,0000 0000 0000 0000 000000
2017-03-20 09:44:16,0.28,10.11,0.00,24.41,27.35,30.38,14.46,50.47,1021.03,2025.15,1231.00,1454.03,1649.02,599.96,595.75,55.16,0000 0000 0000 0000 000000
2017-03-20 09:49:17,0.34,10.12,0.00,24.43,27.35,30.39,14.48,50.59,1021.02,2025.08,1229.23,1452.76,1647.59,600.18,595.97,55.21,0000 0000 0000 0000 000000
2017-03-20 09:54:18,0.32,10.14,0.00,24.45,27.35,30.37,14.53,50.60,1021.03,2025.10,1227.46,1451.51,1646.05,600.01,595.68,55.26,0000 0000 0000 0000 000000
2017-03-20 09:59:20,0.33,10.16,0.00,24.45,27.35,30.38,14.50,50.76,1021.07,2025.14,1225.64,1450.26,1644.55,600.08,595.91,55.31,0000 0000 0000 0000 000000
2017-03-20 10:04:21,0.30,10.17,0.00,24.47,27.35,30.37,14.58,50.71,1021.12,2025.11,1223.88,1448.96,1643.04,600.23,595.96,55.36,0000 0000 0000 0000 000000
2017-03-20 10:09:22,0.32,10.19,0.00,24.45,27.35,30.37,14.49,50.77,1021.06,2025.09,1222.25,1447.67,1641.57,599.93,595.76,55.41,0000 0000 0000 0000 000000
2017-03-20 10:14:24,0.31,10.20,0.00,24.46,27.35,30.35,14.51,50.83,1021.07,2025.09,1220.56,1446.43,1640.06,599.93,595.53,55.46,0000 0000 0000 0000 000000
2017-03-20 10:19:25,0.33,10.22,0.00,24.45,27.35,30.37,14.50,51.05,1021.07,2025.07,1218.78,1445.02,1638.51,599.86,595.64,55.51,0000 0000 0000 0000 000000
2017-03-20 10:24:27,0.39,10.24,0.00,24.46,27.35,30.37,14.40,50.80,1021.01,2025.06,1216.81,1443.58,1636.74,599.52,595.36,55.56,0000 0000 0000 0000 000000
2017-03-20 10:29:28,0.34,10.26,0.00,24.46,27.35,30.38,14.45,50.85,1021.01,2025.05,1214.95,1442.03,1634.98,599.77,595.50,55.61,0000 0000 0000 0000 000000
2017-03-20 10:34:29,0.36,10.28,0.00,24.47,27.36,30.37,14.52,50.67,1021.01,2025.06,1213.10,1440.58,1633.26,599.89,595.54,55.66,0000 0000 0000 0000 000000
2017-03-20 10:39:31,0.36,10.30,0.00,24.47,27.36,30.37,14.47,50.80,1020.96,2025.03,1211.17,1439.03,1631.52,599.43,595.05,55.72,0000 0000 0000 0000 000000
2017-03-20 10:44:32,0.43,10.32,0.00,24.47,27.37,30.38,14.52,51.00,1020.96,2025.03,1209.06,1437.36,1629.54,599.98,595.63,55.77,0000 0000 0000 0000 000000
2017-03-20 10:49:34,0.44,10.34,0.00,24.47,27.37,30.37,14.57,51.02,1021.01,2025.02,1206.76,1435.57,1627.51,600.11,595.74,55.82,0000 0000 0000 0000 000000
2017-03-20 10:54:35,0.44,10.36,0.00,24.46,27.37,30.37,14.51,50.95,1021.01,2025.01,1204.43,1433.82,1625.47,600.30,595.96,55.87,0000 0000 0000 0000 000000
2017-03-20 10:59:36,0.43,10.39,0.00,24.47,27.37,30.38,14.46,50.92,1021.11,2025.04,1202.14,1432.13,1623.50,600.03,595.67,55.92,0000 0000 0000 0000 000000
2017-03-20 11:04:38,0.40,10.41,0.00,24.47,27.37,30.38,14.48,50.95,1021.14,2025.01,1200.09,1430.57,1621.67,599.73,595.51,55.97,0000 0000 0000 0000 000000
2017-03-20 11:09:39,0.37,10.43,0.00,24.46,27.37,30.38,14.52,50.88,1021.03,2025.01,1198.10,1429.01,1619.87,600.01,595.68,56.02,0000 0000 0000 0000 000000
2017-03-20 11:14:40,0.40,10.45,0.00,24.45,27.37,30.38,14.51,50.86,1021.01,2025.02,1196.12,1427.47,1618.06,599.98,595.75,56.07,0000 0000 0000 0000 000000
2017-03-20 11:19:41,0.40,10.47,0.00,24.45,27.37,30.38,14.46,50.93,1021.02,2025.01,1194.03,1425.83,1616.23,599.79,595.46,56.12,0000 0000 0000 0000 000000
2017-03-20 11:24:42,0.41,10.49,0.00,24.44,27.37,30.38,14.56,50.90,1021.29,2025.03,1191.95,1424.24,1614.31,600.24,596.11,56.17,0000 0000 0000 0000 000000
2017-03-20 11:29:44,0.45,10.51,0.00,24.45,27.37,30.39,14.50,50.85,1021.49,2025.02,1189.64,1422.43,1612.25,600.07,596.00,56.22,0000 0000 0000 0000 000000
2017-03-20 11:34:45,0.47,10.54,0.00,24.46,27.37,30.38,14.49,50.65,1021.52,2025.02,1187.26,1420.60,1610.10,600.14,596.05,56.27,0000 0000 0000 0000 000000
2017-03-20 11:39:46,0.44,10.56,0.00,24.47,27.37,30.37,14.57,50.78,1021.85,2025.02,1185.06,1418.80,1608.09,600.09,596.28,56.32,0000 0000 0000 0000 000000
2017-03-20 11:44:47,0.45,10.58,0.00,24.48,27.37,30.38,14.50,50.68,1022.00,2025.02,1182.66,1417.09,1606.02,599.99,596.40,56.37,0000 0000 0000 0000 000000
2017-03-20 11:49:49,0.44,10.60,0.00,24.48,27.37,30.38,14.48,50.60,1022.03,2025.02,1180.40,1415.35,1604.01,599.83,596.04,56.42,0000 0000 0000 0000 000000
2017-03-20 11:54:50,0.45,10.62,0.00,24.47,27.37,30.37,14.45,50.63,1022.02,2025.01,1178.22,1413.62,1602.07,600.19,596.43,56.47,0000 0000 0000 0000 000000
2017-03-20 11:59:51,0.44,10.65,0.00,24.47,27.36,30.37,14.49,50.75,1022.00,2025.00,1175.97,1411.93,1600.07,599.70,595.93,56.52,0000 0000 0000 0000 000000
2017-03-20 12:04:53,0.43,10.67,0.00,24.48,27.36,30.38,14.56,50.68,1021.98,2025.00,1173.69,1410.20,1598.19,599.92,596.16,56.57,0000 0000 0000 0000 000000
2017-03-20 12:09:54,0.46,10.69,0.00,24.51,27.36,30.37,14.50,50.75,1021.87,2025.02,1171.40,1408.41,1596.12,600.06,596.18,56.63,0000 0000 0000 0000 000000
2017-03-20 12:14:56,0.48,10.72,0.00,24.51,27.36,30.38,14.47,50.75,1021.88,2025.01,1168.99,1406.56,1593.93,599.89,596.00,56.68,0000 0000 0000 0000 000000
2017-03-20 12:19:57,0.50,10.74,0.00,24.48,27.36,30.38,14.45,50.74,1021.97,2025.00,1166.54,1404.57,1591.64,599.87,595.93,56.73,0000 0000 0000 0000 000000
2017-03-20 12:24:59,0.51,10.77,0.00,24.48,27.37,30.39,14.51,50.78,1022.00,2025.01,1164.09,1402.58,1589.38,599.89,596.18,56.78,0000 0000 0000 0000 000000
2017-03-20 12:30:00,0.52,10.80,0.00,24.48,27.37,30.38,14.46,50.75,1022.01,2025.02,1161.53,1400.62,1587.07,599.89,596.29,56.83,0000 0000 0000 0000 000000
2017-03-20 12:35:01,0.53,10.82,0.00,24.47,27.37,30.36,14.51,50.74,1022.03,2025.00,1159.01,1398.56,1584.70,599.76,595.93,56.88,0000 0000 0000 0000 000000
2017-03-20 12:40:03,0.54,10.85,0.00,24.49,27.37,30.37,14.55,50.67,1022.07,2025.00,1156.45,1396.47,1582.34,599.90,596.14,56.93,0000 0000 0000 0000 000000
2017-03-20 12:45:04,0.51,10.88,0.00,24.48,27.37,30.37,14.49,50.73,1022.06,2025.01,1154.01,1394.49,1580.04,600.06,596.21,56.98,0000 0000 0000 0000 000000
2017-03-20 12:50:05,0.48,10.90,0.00,24.50,27.36,30.36,14.55,50.69,1022.01,2025.00,1151.68,1392.59,1577.86,599.99,596.16,57.03,0000 0000 0000 0000 000000
2017-03-20 12:55:07,0.44,10.92,0.00,24.50,27.36,30.38,14.48,50.70,1022.03,2025.00,1149.56,1390.82,1575.84,600.12,596.27,57.08,0000 0000 0000 0000 000000